Weather History for Knoxville, TN

Change the Weather History Date:

Sunday, June 30, 2013

  Actual Average Record
Temperature  
Mean Temperature 77 °F 78 °F  
Max Temperature 86 °F 88 °F 105 °F (2012)
Min Temperature 68 °F 68 °F 50 °F (1923)
Degree Days  
Heating Degree Days 0 0  
Month to date heating degree days 0 0  
Since 1 June heating degree days 0 4  
Since 1 July heating degree days 3625 3637  
Cooling Degree Days 12 13  
Month to date cooling degree days 320 305  
Year to date cooling degree days 476 467  
Since 1 June cooling degree days 320 305  
Growing Degree Days 27 (Base 50)    
Moisture  
Dew Point 61 °F    
Average Humidity 56    
Maximum Humidity 78    
Minimum Humidity 34    
Precipitation  
Precipitation 0.00 in 0.15 in 2.20 in (1939)
Month to date precipitation 9.38 3.81  
Year to date precipitation 40.80 25.25  
Snow  
Snow 0.00 in 0.00 in - ()
Month to date snowfall 0.0 0.0  
Since 1 June snowfall 0.0 0.0  
Since 1 July snowfall 3.8 6.5  
Snow Depth 0.00 in    
Sea Level Pressure  
Sea Level Pressure 29.71 in    
Wind  
Wind Speed 5 mph (SW)    
Max Wind Speed 14 mph    
Max Gust Speed 20 mph    
Visibility 10 miles    
Events      
T = Trace of Precipitation, MM = Missing Value Source: NWS Daily Summary

Daily Weather History Graph

Daily Weather History Graph

Search for Another Location

Airport:

Trip Planner

Search our weather history database for the weather conditions in past years. The results will help you decide how hot, cold, wet, or windy it might be!

Date:

Astronomy

Jun. 30, 2013 Rise Set
Actual Time 6:23 AM EDT 8:56 PM EDT
Civil Twilight 5:52 AM EDT 9:26 PM EDT
Nautical Twilight 5:15 AM EDT 10:03 PM EDT
Astronomical Twilight 4:34 AM EDT 10:44 PM EDT
Moon 1:11 AM EDT (6/30) 2:18 PM EDT (6/30)
Length of Visible Light 15h 33m
Length of Day
14h 33m
Last Quarter, 45% of the Moon is Illuminated
Jun 30
Last Quarter
Jul 8
New
Jul 15
First Quarter
Jul 22
Full
Jul 29
Last Quarter

Hourly Weather History & Observations

Time (EDT) Temp. Heat Index Dew Point Humidity Pressure Visibility Wind Dir Wind Speed Gust Speed Precip Events Conditions
12:53 AM 70.0 °F - 62.1 °F 76% 29.68 in 10.0 mi SSW 6.9 mph - N/A   Clear
1:53 AM 70.0 °F - 61.0 °F 73% 29.68 in 10.0 mi South 5.8 mph - N/A   Scattered Clouds
2:53 AM 70.0 °F - 61.0 °F 73% 29.67 in 10.0 mi SW 3.5 mph - N/A   Mostly Cloudy
3:53 AM 70.0 °F - 62.1 °F 76% 29.67 in 10.0 mi West 4.6 mph - N/A   Mostly Cloudy
4:53 AM 70.0 °F - 62.1 °F 76% 29.67 in 10.0 mi SSW 4.6 mph - N/A   Overcast
5:53 AM 69.1 °F - 61.0 °F 75% 29.69 in 10.0 mi WSW 3.5 mph - N/A   Mostly Cloudy
6:53 AM 69.1 °F - 62.1 °F 78% 29.70 in 10.0 mi Calm Calm - N/A   Partly Cloudy
7:53 AM 70.0 °F - 62.1 °F 76% 29.72 in 10.0 mi Calm Calm - N/A   Partly Cloudy
8:53 AM 73.9 °F - 63.0 °F 68% 29.73 in 10.0 mi SSW 3.5 mph - N/A   Scattered Clouds
9:53 AM 77.0 °F - 63.0 °F 62% 29.74 in 10.0 mi Variable 3.5 mph - N/A   Scattered Clouds
10:53 AM 79.0 °F - 63.0 °F 58% 29.73 in 10.0 mi SSW 5.8 mph - N/A   Scattered Clouds
11:53 AM 81.0 °F 82.5 °F 64.0 °F 56% 29.74 in 10.0 mi SSW 8.1 mph - N/A   Scattered Clouds
12:53 PM 82.9 °F 83.3 °F 61.0 °F 47% 29.73 in 10.0 mi SW 11.5 mph - N/A   Mostly Cloudy
1:53 PM 82.9 °F 82.8 °F 59.0 °F 44% 29.72 in 10.0 mi SSW 11.5 mph - N/A   Scattered Clouds
2:53 PM 84.0 °F 83.8 °F 59.0 °F 43% 29.70 in 10.0 mi SW 8.1 mph - N/A   Scattered Clouds
3:53 PM 84.9 °F 84.4 °F 59.0 °F 41% 29.70 in 10.0 mi SSW 9.2 mph - N/A   Scattered Clouds
4:53 PM 84.9 °F 83.7 °F 55.9 °F 37% 29.69 in 10.0 mi SW 4.6 mph - N/A   Scattered Clouds
5:53 PM 84.9 °F 83.3 °F 54.0 °F 34% 29.70 in 10.0 mi SW 8.1 mph - N/A   Scattered Clouds
6:53 PM 84.0 °F 84.4 °F 61.0 °F 46% 29.70 in 10.0 mi West 9.2 mph - N/A   Mostly Cloudy
7:53 PM 82.0 °F 83.0 °F 62.1 °F 51% 29.71 in 10.0 mi NW 4.6 mph - N/A   Mostly Cloudy
8:53 PM 79.0 °F - 63.0 °F 58% 29.72 in 10.0 mi North 4.6 mph - N/A   Mostly Cloudy
9:53 PM 75.9 °F - 64.0 °F 67% 29.74 in 10.0 mi NNE 4.6 mph - N/A   Overcast
10:53 PM 75.0 °F - 64.0 °F 69% 29.76 in 10.0 mi NNW 3.5 mph - N/A   Mostly Cloudy
11:53 PM 73.0 °F - 64.9 °F 76% 29.76 in 10.0 mi NE 3.5 mph - N/A   Overcast